User: anonymous   Login
Location: Zagreb
(45.8000°N, 16.0000°E)
Time: 01:00:18
(UTC+02:00)
Language:

A-11 Canister half - Orbit

View from above orbital plane
View from above orbital plane
View from above satellite
View from above satellite

Ground track
Ground track

The orbit data is extracted from the following two-line orbital elements,

1    53U 60009E   20224.75806605 -.00000015  00000-0  68038-3 0  9995
2    53  47.2768  88.4381 0097228 245.0545 114.0116 12.17242706675306
Epoch (UTC): 11 August 2020 18:11:36
Eccentricity: 0.0097228
inclination: 47.2768°
perigee height: 1527 km
apogee height: 1682 km
right ascension of ascending node: 88.4381°
argument of perigee: 245.0545°
revolutions per day: 12.17242706
mean anomaly at epoch: 114.0116°
orbit number at epoch: 67530

The dashed part of the orbit path shows where the satellite is in the earth's shadow,  

DLR